Terminal Aerodrome Forecast
Issued by NWS

Home | Current Version | Previous Version | Text Only | Print | Product List | Glossary Off
Versions: 1 2 3 4 5 6 7 8 9 10 11 12 13 14 15 16 17 18

000
FTUS43 KBIS 301700
TAFDIK
TAF
KDIK 301735Z 3018/3118 15016KT P6SM SCT070
     FM302300 16015KT P6SM SHRA VCTS BKN050CB
      TEMPO 3102/3106 TSRA SCT015 BKN035CB
     FM310600 30010KT P6SM BKN015
     FM311300 30010KT P6SM SCT015 BKN050=

USA.gov is the U.S. government's official web portal to all federal, state and local government web resources and services.